Home > Weather > New Haven > Past weeks

Flag for USA Past Weather in New Haven, Connecticut, USA — Yesterday and Last 2 Weeks

Now
75 °F

Sunny.


Feels Like: 77 °F
Forecast: 69 / 88 °F
Wind: 9 mph from South

Location: Tweed-New Haven Airport

Current Time: Aug 28, 2016 at 8:24:04 PM

Latest Report: Aug 28, 2016 at 7:53 PM


Visibility: 10 mi

Pressure: 30.16 "Hg

Humidity: 64%

Dew Point: 62 °F

Location of New HavenLocation

Past Weather in New Haven — Graph

°F

New Haven Temperature Yesterday

Maximum temperature yesterday: 85 °F (at 3:53 PM)
Minimum temperature yesterday: 67 °F (at 5:53 AM)
Average temperature yesterday: 76 °F

High & Low Weather Summary for the Past Weeks

 TemperatureHumidityPressure
High90 °F (Aug 14, 3:53 PM)97% (Aug 14, 5:53 AM)30.31 "Hg (Aug 14, 5:53 AM)
Low53 °F (Aug 23, 3:53 AM)35% (Aug 22, 2:53 PM)29.76 "Hg (Aug 21, 11:53 PM)
Average77 °F71%30.05 "Hg
* Reported Aug 13 6:53 PM — Aug 28 6:53 PM, New Haven, Weather by CustomWeather, © 2016

Note: Actual official high and low records may vary slightly from our data, if they occured in-between our weather recording intervals... More about our weather records

Advertising

New Haven Weather History for the Previous 24 Hours

Scroll right to see more
 ConditionsComfort  
Time TempWeatherWind HumidityBarometerVisibility
6:53 PM
Sun, Aug 28
78 °FSunny.13 mph58%30.17 "Hg10 mi
5:53 PM82 °FPassing clouds.9 mph51%30.18 "Hg10 mi
4:53 PM82 °FSunny.9 mph55%30.19 "Hg10 mi
3:53 PM82 °FScattered clouds.9 mph51%30.21 "Hg10 mi
2:53 PM82 °FScattered clouds.7 mph51%30.23 "Hg10 mi
1:53 PM82 °FPassing clouds.8 mph49%30.25 "Hg10 mi
12:53 PM82 °FPassing clouds.7 mph46%30.26 "Hg10 mi
11:53 AM80 °FPassing clouds.7 mph47%30.27 "Hg10 mi
10:53 AM80 °FSunny.6 mph60%30.29 "Hg10 mi
9:53 AM76 °FPassing clouds.6 mph74%30.28 "Hg10 mi
8:53 AM76 °FSunny.3 mph74%30.28 "Hg10 mi
7:53 AM72 °FSunny.No wind91%30.28 "Hg10 mi
6:53 AM66 °FPassing clouds.No wind96%30.27 "Hg10 mi
5:53 AM65 °FClear.5 mph97%30.26 "Hg10 mi
4:53 AM66 °FClear.5 mph93%30.25 "Hg10 mi
3:53 AM66 °FClear.3 mph93%30.23 "Hg10 mi
2:53 AM66 °FClear.No wind90%30.23 "Hg10 mi
1:53 AM67 °FClear.No wind87%30.23 "Hg10 mi
12:53 AM67 °FClear.No wind85%30.24 "Hg10 mi
11:53 PM
Sat, Aug 27
68 °FClear.No wind82%30.23 "Hg10 mi
10:53 PM72 °FClear.No wind73%30.23 "Hg10 mi
9:53 PM72 °FClear.5 mph71%30.22 "Hg10 mi
8:53 PM75 °FPassing clouds.8 mph66%30.22 "Hg10 mi
Weather by CustomWeather, © 2016

See weather overviewHow to use our weather pages